{"data":{"norad_id":57057,"epoch":"2026-09-19T22:38:36.229632Z","epoch_age_seconds":165704,"freshness":"FRESH","line1":"1 57057U 23088K   26262.94347488  .00000200  00000+0  16802-4 0  9992","line2":"2 57057  43.0023  93.3693 0001414 254.9204 105.1491 15.27577665180042","mean_motion":15.27577665,"eccentricity":0.0001414,"inclination_deg":43.0023,"raan_deg":93.3693,"arg_perigee_deg":254.9204,"mean_anomaly_deg":105.1491,"bstar":1.6802e-5,"rev_number":18004,"period_min":94.266892806396,"perigee_km":482.08591517595,"apogee_km":484.0262605812,"semimajor_km":6861.1930878786,"source":"CELESTRAK","updated_at":"2026-09-21T09:00:33.549655Z"}}